Glencoe, MN

2:14 AM CST on December 16, 2019 (GMT -0600)
Glencoe Municipal

Weather History for KGYL - October, 2019

Change the Weather History Date:

Wednesday, October 30, 2019

  Actual Average (KHCD) Record (KHCD)
Temperature  
Mean Temperature 26 °F -  
Max Temperature 33 °F 52 °F 73 °F (1965)
Min Temperature 19 °F 33 °F 14 °F (1988)
Degree Days  
Heating Degree Days 39    
Moisture  
Dew Point 18 °F    
Average Humidity 71    
Maximum Humidity 86    
Minimum Humidity 50    
Precipitation  
Precipitation 0.00 in - - ()
Sea Level Pressure  
Sea Level Pressure 30.30 in    
Wind  
Wind Speed 4 mph (West)    
Max Wind Speed 9 mph    
Max Gust Speed -    
Visibility 9 miles    
Events      
Averages and records for this station are not official NWS values.
T = Trace of Precipitation, MM = Missing Value Source: NWS Daily Summary

Daily Weather History Graph

Daily Weather History Graph

Search for Another Location

Airport or City:

Astronomy

Oct. 30, 2019 Rise Set
Actual Time 7:51 AM CDT 6:07 PM CDT
Civil Twilight 7:20 AM CDT 6:38 PM CDT
Nautical Twilight 6:46 AM CDT 7:12 PM CDT
Astronomical Twilight 6:12 AM CDT 7:46 PM CDT
Moon 10:40 AM CDT (10/30) 8:10 PM CDT (10/30)
Length of Visible Light 11h 17m
Length of Day
10h 16m
Waxing Crescent, 9% of the Moon is Illuminated
Oct 30
Waxing Crescent
Nov 4
First Quarter
Nov 12
Full
Nov 19
Last Quarter
Nov 26
New

Hourly Weather History & Observations

Time (CDT) Temp. Windchill Dew Point Humidity Pressure Visibility Wind Dir Wind Speed Gust Speed Precip Events Conditions
12:16 AM 24.8 °F 19.1 °F 17.6 °F 74% 30.35 in 10.0 mi West 4.6 mph - N/A   Clear
12:35 AM 24.3 °F 19.9 °F 17.4 °F 75% 30.35 in 10.0 mi West 3.5 mph - N/A   Clear
12:57 AM 23.2 °F 18.7 °F 17.6 °F 79% 30.35 in 10.0 mi WSW 3.5 mph - N/A   Clear
1:16 AM 23.5 °F 17.6 °F 17.4 °F 77% 30.35 in 10.0 mi West 4.6 mph - N/A   Clear
1:35 AM 22.6 °F 18.0 °F 17.4 °F 80% 30.35 in 10.0 mi WSW 3.5 mph - N/A   Clear
1:55 AM 22.8 °F 18.2 °F 17.2 °F 79% 30.35 in 7.0 mi West 3.5 mph - N/A   Clear
2:17 AM 23.2 °F 17.2 °F 16.7 °F 76% 30.35 in 10.0 mi West 4.6 mph - N/A   Clear
2:35 AM 22.8 °F 16.7 °F 16.7 °F 77% 30.36 in 10.0 mi WSW 4.6 mph - N/A   Clear
2:36 AM 22.8 °F 16.7 °F 16.7 °F 77% 30.36 in 10.0 mi WSW 4.6 mph - N/A   Clear
2:55 AM 22.1 °F 17.4 °F 16.7 °F 80% 30.35 in 10.0 mi WSW 3.5 mph - N/A   Clear
2:59 AM 21.9 °F 17.2 °F 16.7 °F 80% 30.35 in 10.0 mi West 3.5 mph - N/A   Clear
3:18 AM 21.9 °F 17.2 °F 16.7 °F 80% 30.35 in 10.0 mi West 3.5 mph - N/A   Clear
3:36 AM 21.6 °F 16.8 °F 16.7 °F 82% 30.35 in 10.0 mi WSW 3.5 mph - N/A   Clear
3:55 AM 21.0 °F 16.2 °F 16.7 °F 83% 30.35 in 10.0 mi WSW 3.5 mph - N/A   Clear
3:56 AM 21.0 °F 16.2 °F 16.7 °F 83% 30.35 in 10.0 mi WSW 3.5 mph - N/A   Clear
4:17 AM 20.7 °F 15.8 °F 16.7 °F 85% 30.34 in 10.0 mi WSW 3.5 mph - N/A   Clear
4:35 AM 19.6 °F 14.5 °F 16.0 °F 86% 30.35 in 10.0 mi WSW 3.5 mph - N/A   Clear
4:36 AM 19.6 °F 14.5 °F 16.0 °F 86% 30.35 in 10.0 mi WSW 3.5 mph - N/A   Clear
4:55 AM 20.1 °F 13.6 °F 16.2 °F 85% 30.34 in 10.0 mi West 4.6 mph - N/A   Clear
5:17 AM 20.3 °F 13.8 °F 16.7 °F 86% 30.34 in 10.0 mi West 4.6 mph - N/A   Clear
5:35 AM 21.9 °F 15.7 °F 17.1 °F 82% 30.34 in 10.0 mi West 4.6 mph - N/A   Clear
5:36 AM 22.1 °F 15.9 °F 17.1 °F 81% 30.34 in 10.0 mi West 4.6 mph - N/A   Clear
5:58 AM 23.0 °F 17.0 °F 17.2 °F 79% 30.35 in 10.0 mi WSW 4.6 mph - N/A   Clear
6:17 AM 22.6 °F 16.5 °F 16.9 °F 79% 30.36 in 10.0 mi West 4.6 mph - N/A   Clear
6:35 AM 22.6 °F 18.0 °F 17.2 °F 80% 30.36 in 10.0 mi WSW 3.5 mph - N/A   Clear
6:36 AM 22.6 °F 18.0 °F 17.2 °F 80% 30.36 in 10.0 mi WSW 3.5 mph - N/A   Clear
6:55 AM 22.3 °F 17.6 °F 17.6 °F 82% 30.36 in 10.0 mi West 3.5 mph - N/A   Clear
7:00 AM 22.1 °F 17.4 °F 17.8 °F 83% 30.35 in 10.0 mi West 3.5 mph - N/A   Clear
7:18 AM 22.5 °F 15.1 °F 17.6 °F 82% 30.35 in 10.0 mi West 5.8 mph - N/A   Clear
7:36 AM 22.1 °F 17.4 °F 17.6 °F 83% 30.35 in 10.0 mi West 3.5 mph - N/A   Clear
7:55 AM 22.5 °F 15.1 °F 17.6 °F 82% 30.35 in 7.0 mi West 5.8 mph - N/A   Clear
7:56 AM 22.5 °F 14.1 °F 17.6 °F 82% 30.35 in 7.0 mi West 6.9 mph - N/A   Clear
8:19 AM 22.8 °F 16.7 °F 17.6 °F 80% 30.35 in 7.0 mi West 4.6 mph - N/A   Clear
8:36 AM 23.0 °F - 18.0 °F 81% 30.35 in 10.0 mi Calm Calm - N/A   Clear
8:55 AM 23.4 °F 18.9 °F 18.7 °F 82% 30.36 in 10.0 mi SW 3.5 mph - N/A   Clear
8:56 AM 23.4 °F 18.9 °F 18.7 °F 82% 30.36 in 10.0 mi SW 3.5 mph - N/A   Clear
9:19 AM 24.4 °F 20.1 °F 18.9 °F 79% 30.35 in 10.0 mi WSW 3.5 mph - N/A   Clear
9:37 AM 24.8 °F 19.1 °F 19.2 °F 79% 30.35 in 7.0 mi WSW 4.6 mph - N/A   Clear
9:55 AM 25.3 °F 19.7 °F 19.8 °F 79% 30.35 in 7.0 mi SW 4.6 mph - N/A   Clear
9:56 AM 25.3 °F 19.7 °F 19.8 °F 79% 30.35 in 7.0 mi SW 4.6 mph - N/A   Clear
10:15 AM 25.9 °F 20.3 °F 19.9 °F 78% 30.36 in 10.0 mi SW 4.6 mph - N/A   Clear
10:20 AM 26.2 °F 20.7 °F 19.9 °F 77% 30.36 in 7.0 mi SW 4.6 mph - N/A   Clear
10:38 AM 27.3 °F - 20.1 °F 74% 30.35 in 10.0 mi Calm Calm - N/A   Clear
10:59 AM 28.4 °F 23.3 °F 19.4 °F 69% 30.35 in 7.0 mi SSW 4.6 mph - N/A   Scattered Clouds
11:11 AM 28.4 °F 24.6 °F 20.3 °F 72% 30.35 in 7.0 mi SW 3.5 mph - N/A   Scattered Clouds
11:15 AM 28.6 °F 23.5 °F 19.9 °F 70% 30.35 in 7.0 mi SW 4.6 mph - N/A   Scattered Clouds
11:19 AM 29.1 °F 25.4 °F 20.3 °F 70% 30.35 in 10.0 mi SW 3.5 mph - N/A   Scattered Clouds
11:36 AM 29.3 °F 24.3 °F 19.8 °F 68% 30.35 in 10.0 mi WSW 4.6 mph - N/A   Clear
11:55 AM 30.9 °F 26.2 °F 19.4 °F 62% 30.34 in 10.0 mi WSW 4.6 mph - N/A   Clear
12:15 PM 31.1 °F 25.4 °F 16.2 °F 54% 30.33 in 10.0 mi SW 5.8 mph - N/A   Clear
12:16 PM 31.1 °F 24.5 °F 16.2 °F 54% 30.33 in 10.0 mi WSW 6.9 mph - N/A   Clear
12:37 PM 31.6 °F 27.0 °F 16.9 °F 54% 30.32 in 10.0 mi West 4.6 mph - N/A   Scattered Clouds
12:55 PM 32.0 °F 27.5 °F 17.1 °F 54% 30.32 in 7.0 mi West 4.6 mph - N/A   Scattered Clouds
12:56 PM 32.0 °F 26.4 °F 17.1 °F 54% 30.32 in 7.0 mi West 5.8 mph - N/A   Scattered Clouds
1:15 PM 32.2 °F 25.0 °F 16.2 °F 52% 30.31 in 7.0 mi West 8.1 mph - N/A   Scattered Clouds
1:16 PM 32.4 °F 26.0 °F 16.2 °F 51% 30.31 in 7.0 mi WNW 6.9 mph - N/A   Scattered Clouds
1:38 PM 32.0 °F 27.5 °F 16.0 °F 52% 30.29 in 10.0 mi SSW 4.6 mph - N/A   Clear
1:55 PM 32.9 °F 27.5 °F 16.2 °F 50% 30.29 in 10.0 mi WSW 5.8 mph - N/A   Scattered Clouds
2:15 PM 32.9 °F 27.5 °F 16.3 °F 51% 30.27 in 10.0 mi WSW 5.8 mph - N/A   Scattered Clouds
2:16 PM 32.9 °F 26.7 °F 16.5 °F 51% 30.27 in 10.0 mi WSW 6.9 mph - N/A   Scattered Clouds
2:54 PM - - - N/A% 30.26 in 10.0 mi West 9.2 mph - N/A   Scattered Clouds
2:58 PM 32.7 °F 26.4 °F 17.2 °F 53% 30.26 in 7.0 mi West 6.9 mph - N/A   Scattered Clouds
3:15 PM 32.7 °F 28.3 °F 17.8 °F 54% 30.25 in 10.0 mi WSW 4.6 mph - N/A   Scattered Clouds
3:35 PM 33.8 °F 28.6 °F 18.0 °F 52% 30.25 in 10.0 mi West 5.8 mph - N/A   Scattered Clouds
3:36 PM 33.6 °F 28.4 °F 18.0 °F 53% 30.25 in 10.0 mi West 5.8 mph - N/A   Scattered Clouds
3:57 PM 33.1 °F 26.1 °F 17.4 °F 53% 30.24 in 7.0 mi WNW 8.1 mph - N/A   Mostly Cloudy
4:15 PM 32.7 °F 26.4 °F 17.6 °F 54% 30.24 in 7.0 mi West 6.9 mph - N/A   Scattered Clouds
4:35 PM 32.4 °F 25.3 °F 17.4 °F 54% 30.24 in 10.0 mi West 8.1 mph - N/A   Scattered Clouds
4:36 PM 32.5 °F 26.2 °F 17.4 °F 54% 30.24 in 10.0 mi West 6.9 mph - N/A   Scattered Clouds
4:55 PM 32.4 °F 24.6 °F 17.1 °F 53% 30.23 in 7.0 mi West 9.2 mph - N/A   Mostly Cloudy
4:59 PM 32.2 °F 24.4 °F 16.9 °F 53% 30.23 in 7.0 mi West 9.2 mph - N/A   Mostly Cloudy
5:17 PM 32.0 °F 24.8 °F 16.9 °F 54% 30.22 in 10.0 mi WNW 8.1 mph - N/A   Mostly Cloudy
5:35 PM 31.8 °F 26.2 °F 17.4 °F 55% 30.22 in 10.0 mi WNW 5.8 mph - N/A   Scattered Clouds
5:36 PM 31.6 °F 26.0 °F 17.4 °F 56% 30.22 in 10.0 mi WNW 5.8 mph - N/A   Scattered Clouds
5:55 PM 31.6 °F 25.1 °F 17.6 °F 56% 30.22 in 10.0 mi NW 6.9 mph - N/A   Mostly Cloudy
6:00 PM 31.5 °F 24.9 °F 18.0 °F 57% 30.22 in 10.0 mi NW 6.9 mph - N/A   Mostly Cloudy
6:18 PM 30.6 °F 24.7 °F 18.3 °F 60% 30.22 in 10.0 mi WNW 5.8 mph - N/A   Scattered Clouds
6:35 PM 29.3 °F 23.2 °F 18.3 °F 64% 30.22 in 10.0 mi WNW 5.8 mph - N/A   Clear
6:55 PM 29.3 °F 23.2 °F 18.3 °F 64% 30.22 in 10.0 mi WNW 5.8 mph - N/A   Clear
7:19 PM 28.4 °F 23.3 °F 18.5 °F 66% 30.22 in 10.0 mi WNW 4.6 mph - N/A   Clear
7:37 PM 27.5 °F 23.6 °F 19.0 °F 71% 30.22 in 7.0 mi WNW 3.5 mph - N/A   Clear
7:55 PM 26.8 °F 22.8 °F 19.2 °F 73% 30.22 in 10.0 mi NW 3.5 mph - N/A   Clear
8:15 PM 27.0 °F 23.0 °F 19.4 °F 73% 30.22 in 10.0 mi WNW 3.5 mph - N/A   Clear
8:16 PM 26.8 °F 22.8 °F 19.4 °F 74% 30.22 in 10.0 mi WNW 3.5 mph - N/A   Clear
8:37 PM 26.2 °F 22.1 °F 19.4 °F 75% 30.22 in 10.0 mi WNW 3.5 mph - N/A   Clear
8:55 PM 25.0 °F - 19.8 °F 81% 30.22 in 10.0 mi Calm Calm - N/A   Clear
9:15 PM 24.8 °F 19.1 °F 19.8 °F 81% 30.21 in 10.0 mi WNW 4.6 mph - N/A   Clear
9:16 PM 24.8 °F 19.1 °F 19.9 °F 82% 30.21 in 10.0 mi WNW 4.6 mph - N/A   Clear
9:39 PM 24.8 °F 19.1 °F 19.4 °F 80% 30.21 in 10.0 mi NW 4.6 mph - N/A   Clear
9:57 PM 24.8 °F 19.1 °F 19.4 °F 80% 30.21 in 10.0 mi WNW 4.6 mph - N/A   Clear
10:15 PM 24.6 °F 20.3 °F 19.0 °F 79% 30.20 in 10.0 mi NW 3.5 mph - N/A   Clear
10:16 PM 24.6 °F 20.3 °F 19.0 °F 79% 30.20 in 10.0 mi NW 3.5 mph - N/A   Clear
10:35 PM 24.6 °F 20.3 °F 18.9 °F 79% 30.20 in 10.0 mi WNW 3.5 mph - N/A   Clear
10:57 PM 25.2 °F - 19.9 °F 81% 30.20 in 10.0 mi Calm Calm - N/A   Mostly Cloudy
11:15 PM 25.7 °F - 21.6 °F 84% 30.20 in 10.0 mi Calm Calm - N/A   Overcast
11:16 PM 25.9 °F 21.7 °F 21.4 °F 83% 30.20 in 10.0 mi NW 3.5 mph - N/A   Overcast
11:39 PM 26.6 °F 22.6 °F 20.3 °F 77% 30.19 in 10.0 mi WNW 3.5 mph - N/A   Overcast
11:55 PM 27.0 °F 23.0 °F 20.3 °F 76% 30.19 in 10.0 mi NNW 3.5 mph - N/A   Overcast